[[{"header":{"parameterUnit":"m.s-1","parameterCategory":1,"la1":30.2992,"la2":30.254,"lo1":-89.0895,"lo2":-89.0443,"dy":0.0025,"dx":0.0025,"nx":19,"ny":19,"refTime":"2026-04-11T09:00:00:Z","depth":0,"parameterNumber":2,"parameterNumberName":"U-component_of_WINDS"},"data":[0,0,0,-0.9295,-0.9295,-0.9256,-0.9256,-0.9225,-0.9225,0,0,0,0,0,0,0,0,0,0,0,-0.9318,-0.9318,-0.9295,-0.9295,-0.9256,-0.9256,-0.9225,-0.9225,0,0,0,0,0,0,0,0,0,0,0,-0.9318,-0.9318,-0.9318,-0.9295,-0.9256,-0.9256,-0.9226,-0.9248,0,0,0,0,0,0,0,0,0,0,-0.9282,-0.9314,-0.9318,-0.9318,-0.9294,-0.9256,-0.9256,-0.9249,-0.9247,-0.9251,0,-0.9258,0,-0.9241,-0.9225,-0.9224,0,0,0,-0.9286,-0.9316,-0.9295,-0.9318,-0.9294,-0.9256,-0.9271,-0.9247,-0.9245,-0.9248,-0.9257,-0.9255,-0.9241,-0.9224,-0.9224,-0.9278,-0.9279,0,0,-0.9289,-0.9317,-0.9297,-0.9294,-0.9301,-0.9272,-0.927,-0.9246,-0.9257,-0.9257,-0.9254,-0.924,-0.9224,-0.9224,-0.9278,-0.9279,0,0,0,-0.93,-0.9319,-0.9298,-0.9296,-0.9288,-0.9272,-0.9269,-0.9258,-0.9249,-0.9254,-0.924,-0.9224,-0.9224,-0.9277,-0.9278,-0.9338,0,0,0,-0.9301,-0.9326,-0.93,-0.9317,-0.9289,-0.9272,-0.9282,-0.9251,-0.9247,-0.924,-0.9224,-0.9224,-0.9276,-0.9278,-0.9335,-0.9363,0,0,0,-0.9317,-0.9327,-0.9326,-0.9319,-0.9303,-0.9272,-0.9261,-0.9249,-0.9239,-0.9224,-0.9224,-0.9276,-0.9277,-0.9332,-0.9358,-0.9386,0,0,0,-0.9341,-0.9379,-0.9327,-0.9364,-0.9304,-0.931,-0.9261,-0.9264,-0.9259,-0.9224,-0.9276,-0.9278,-0.9331,-0.9355,-0.9383,-0.9416,-0.9432,0,0,-0.9405,-0.9388,-0.9407,-0.9359,-0.9382,-0.9313,-0.9344,-0.9312,-0.9285,-0.9282,-0.9283,-0.9336,-0.9357,-0.9386,-0.951,-0.9524,0,0,0,-0.9437,-0.9451,-0.9451,-0.9448,-0.9424,-0.9407,-0.9367,-0.9355,-0.9352,-0.9289,-0.9353,-0.9364,-0.938,-0.9394,-0.9405,-0.9417,-0.9285,-0.9285,-0.9285,-0.9569,-0.9531,-0.9561,-0.952,-0.9517,-0.9476,-0.9471,-0.9448,-0.941,-0.9426,-0.9426,-0.9506,-0.9524,-0.9532,-0.9545,-0.9439,-0.9439,-0.9439,-0.9439,-0.9659,-0.9675,-0.9625,-0.9636,-0.9597,-0.9606,-0.9568,-0.9542,-0.9545,-0.9503,-0.9515,-0.9473,-0.9547,-0.9557,-0.9444,-0.9443,-0.9442,-0.9442,-0.9442,-0.9743,-0.9744,-0.9728,-0.972,-0.9718,-0.9674,-0.968,-0.9644,-0.9609,-0.9621,-0.9617,-0.9616,-0.9612,-0.9622,-0.9622,-0.9622,-0.9622,-0.9623,-0.9623,-0.9836,-0.9816,-0.9826,-0.9805,-0.9798,-0.9785,-0.9744,-0.9737,-0.972,-0.9693,-0.9693,-0.9655,-0.9561,-0.9539,-0.9627,-0.9626,-0.9626,-0.9625,-0.9625,-0.9944,-0.9914,-0.9928,-0.9922,-0.9895,-0.9896,-0.9849,-0.9837,-0.9826,-0.983,-0.979,-0.9726,-0.9706,-0.9697,-0.9678,-0.9797,-0.9797,-0.9797,-0.9797,-1.0016,-1.0001,-1.0009,-1.0001,-0.9989,-0.9949,-0.9968,-0.9937,-0.99,-0.9891,-0.9868,-0.984,-0.9833,-0.9817,-0.9805,-0.9788,-0.9932,-0.9932,-0.9932,-1.0081,-1.0064,-1.0087,-1.0051,-1.0027,-1.0007,-1.0024,-1.0018,-0.997,-0.9937,-0.9884,-0.9878,-0.9832,-0.9819,-0.9786,-0.9768,-0.9735,0,0]},{"header":{"parameterUnit":"m.s-1","parameterCategory":1,"la1":30.2992,"la2":30.254,"lo1":-89.0895,"lo2":-89.0443,"dy":0.0025,"dx":0.0025,"nx":19,"ny":19,"refTime":"2026-04-11T09:00:00:Z","depth":0,"parameterNumber":3,"parameterNumberName":"V-component_of_WINDS"},"data":[0,0,0,1.4697,1.4697,1.471,1.471,1.4729,1.4729,0,0,0,0,0,0,0,0,0,0,0,1.4696,1.4696,1.4697,1.4697,1.471,1.471,1.4729,1.4729,0,0,0,0,0,0,0,0,0,0,0,1.4696,1.4696,1.4696,1.4697,1.471,1.471,1.4729,1.4718,0,0,0,0,0,0,0,0,0,0,1.4705,1.4707,1.4696,1.4696,1.4697,1.471,1.471,1.4718,1.4719,1.4725,0,1.4732,0,1.4731,1.4731,1.4731,0,0,0,1.4695,1.4706,1.4707,1.4696,1.4697,1.471,1.4703,1.4718,1.472,1.4727,1.4732,1.4733,1.4731,1.4731,1.4731,1.4775,1.4775,0,0,1.4694,1.4699,1.4706,1.4708,1.4707,1.4703,1.4704,1.4719,1.4725,1.4732,1.4733,1.4732,1.4731,1.4731,1.4774,1.4775,0,0,0,1.4694,1.4699,1.4699,1.4708,1.471,1.4703,1.4704,1.4724,1.4724,1.4733,1.4732,1.4731,1.4732,1.4774,1.4775,1.4794,0,0,0,1.4693,1.4698,1.4699,1.4702,1.4709,1.4717,1.4709,1.4723,1.4724,1.4732,1.4731,1.4732,1.4774,1.4774,1.4793,1.4802,0,0,0,1.4694,1.4698,1.4701,1.4702,1.4708,1.4717,1.4717,1.4723,1.4724,1.4731,1.4732,1.4774,1.4774,1.4791,1.48,1.4814,0,0,0,1.4696,1.4718,1.4702,1.4726,1.4708,1.4729,1.4717,1.4732,1.4741,1.4731,1.4774,1.4775,1.4791,1.4799,1.4813,1.4827,1.4833,0,0,1.4726,1.4722,1.4736,1.4721,1.4746,1.4727,1.4754,1.4757,1.4754,1.4768,1.4769,1.4793,1.48,1.4814,1.4868,1.4873,0,0,0,1.4747,1.4757,1.4763,1.4771,1.4774,1.4778,1.4776,1.4777,1.4789,1.4762,1.4802,1.4806,1.4814,1.482,1.4825,1.4831,1.4778,1.4778,1.4778,1.4797,1.4791,1.4813,1.4809,1.4818,1.4816,1.4822,1.4823,1.4815,1.4825,1.4829,1.4862,1.487,1.4873,1.488,1.4836,1.4836,1.4836,1.4836,1.484,1.4853,1.4842,1.486,1.4853,1.4868,1.4867,1.4861,1.4873,1.4859,1.4865,1.4849,1.4879,1.4884,1.4837,1.4837,1.4837,1.4837,1.4837,1.4872,1.4877,1.4878,1.489,1.49,1.4895,1.4907,1.4901,1.4895,1.4902,1.4905,1.4905,1.4903,1.4904,1.4905,1.4905,1.4905,1.4905,1.4905,1.4903,1.4904,1.4916,1.4921,1.4926,1.4931,1.493,1.4934,1.4937,1.4932,1.4932,1.4922,1.4883,1.4873,1.4907,1.4906,1.4906,1.4906,1.4906,1.4948,1.4937,1.4955,1.496,1.4965,1.4975,1.4968,1.4977,1.498,1.4986,1.4975,1.4947,1.4942,1.4938,1.493,1.4977,1.4977,1.4977,1.4977,1.4974,1.4971,1.4988,1.4996,1.5003,1.4998,1.5017,1.5017,1.5014,1.5016,1.5008,1.4997,1.4993,1.499,1.4985,1.4977,1.5035,1.5035,1.5035,1.5001,1.4999,1.5017,1.5015,1.5019,1.5023,1.5041,1.505,1.5045,1.5037,1.5016,1.5014,1.4995,1.499,1.4981,1.4974,1.4959,0,0]}]]